Data supplied by UK-AIR on 3/6/2009
All Data GMT hour ending 
Status: R =Ratified P=Provisional,P*=As supplied
,,Oxford Centre Roadside,,,,,,,,,,,,,,,,,,,,,,,
Date,time,"Nitric oxide",status,unit,"Nitrogen dioxide",status,unit,"Nitrogen oxides as nitrogen dioxide",status,unit
 
01-01-2008,01:00,,,,,,,,,
01-01-2008,02:00,65,R,ugm-3,63,R,ugm-3,162,R,ugm-3
01-01-2008,03:00,98,R,ugm-3,65,R,ugm-3,214,R,ugm-3
01-01-2008,04:00,84,R,ugm-3,61,R,ugm-3,189,R,ugm-3
01-01-2008,05:00,51,R,ugm-3,53,R,ugm-3,132,R,ugm-3
01-01-2008,06:00,24,R,ugm-3,44,R,ugm-3,80,R,ugm-3
01-01-2008,07:00,28,R,ugm-3,44,R,ugm-3,86,R,ugm-3
01-01-2008,08:00,20,R,ugm-3,46,R,ugm-3,76,R,ugm-3
01-01-2008,09:00,28,R,ugm-3,42,R,ugm-3,84,R,ugm-3
01-01-2008,10:00,51,R,ugm-3,53,R,ugm-3,132,R,ugm-3
01-01-2008,11:00,65,R,ugm-3,63,R,ugm-3,162,R,ugm-3
01-01-2008,12:00,64,R,ugm-3,67,R,ugm-3,164,R,ugm-3
01-01-2008,13:00,41,R,ugm-3,63,R,ugm-3,126,R,ugm-3
01-01-2008,14:00,55,R,ugm-3,69,R,ugm-3,153,R,ugm-3
01-01-2008,15:00,83,R,ugm-3,86,R,ugm-3,212,R,ugm-3
01-01-2008,16:00,85,R,ugm-3,94,R,ugm-3,223,R,ugm-3
01-01-2008,17:00,79,R,ugm-3,90,R,ugm-3,210,R,ugm-3
01-01-2008,18:00,73,R,ugm-3,84,R,ugm-3,195,R,ugm-3
01-01-2008,19:00,76,R,ugm-3,76,R,ugm-3,193,R,ugm-3
01-01-2008,20:00,80,R,ugm-3,78,R,ugm-3,201,R,ugm-3
01-01-2008,21:00,69,R,ugm-3,71,R,ugm-3,176,R,ugm-3
01-01-2008,22:00,63,R,ugm-3,73,R,ugm-3,168,R,ugm-3
01-01-2008,23:00,56,R,ugm-3,69,R,ugm-3,155,R,ugm-3
01-01-2008,24:00,29,R,ugm-3,57,R,ugm-3,101,R,ugm-3
02-01-2008,01:00,25,R,ugm-3,53,R,ugm-3,92,R,ugm-3
02-01-2008,02:00,10,R,ugm-3,59,R,ugm-3,74,R,ugm-3
02-01-2008,03:00,14,R,ugm-3,55,R,ugm-3,76,R,ugm-3
02-01-2008,04:00,9,R,ugm-3,46,R,ugm-3,59,R,ugm-3
02-01-2008,05:00,23,R,ugm-3,50,R,ugm-3,84,R,ugm-3
02-01-2008,06:00,30,R,ugm-3,50,R,ugm-3,96,R,ugm-3
02-01-2008,07:00,66,R,ugm-3,59,R,ugm-3,160,R,ugm-3
02-01-2008,08:00,135,R,ugm-3,90,R,ugm-3,296,R,ugm-3
02-01-2008,09:00,146,R,ugm-3,84,R,ugm-3,308,R,ugm-3
02-01-2008,10:00,130,R,ugm-3,82,R,ugm-3,281,R,ugm-3
02-01-2008,11:00,100,R,ugm-3,76,R,ugm-3,229,R,ugm-3
02-01-2008,12:00,89,R,ugm-3,78,R,ugm-3,214,R,ugm-3
02-01-2008,13:00,113,R,ugm-3,78,R,ugm-3,250,R,ugm-3
02-01-2008,14:00,161,R,ugm-3,103,R,ugm-3,350,R,ugm-3
02-01-2008,15:00,164,R,ugm-3,103,R,ugm-3,353,R,ugm-3
02-01-2008,16:00,151,R,ugm-3,96,R,ugm-3,327,R,ugm-3
02-01-2008,17:00,186,R,ugm-3,117,R,ugm-3,401,R,ugm-3
02-01-2008,18:00,210,R,ugm-3,128,R,ugm-3,449,R,ugm-3
02-01-2008,19:00,128,R,ugm-3,92,R,ugm-3,287,R,ugm-3
02-01-2008,20:00,99,R,ugm-3,86,R,ugm-3,237,R,ugm-3
02-01-2008,21:00,136,R,ugm-3,88,R,ugm-3,296,R,ugm-3
02-01-2008,22:00,69,R,ugm-3,71,R,ugm-3,176,R,ugm-3
02-01-2008,23:00,69,R,ugm-3,65,R,ugm-3,170,R,ugm-3
02-01-2008,24:00,53,R,ugm-3,59,R,ugm-3,139,R,ugm-3
03-01-2008,01:00,33,R,ugm-3,52,R,ugm-3,101,R,ugm-3
03-01-2008,02:00,18,R,ugm-3,46,R,ugm-3,73,R,ugm-3
03-01-2008,03:00,11,R,ugm-3,38,R,ugm-3,55,R,ugm-3
03-01-2008,04:00,14,R,ugm-3,34,R,ugm-3,55,R,ugm-3
03-01-2008,05:00,10,R,ugm-3,36,R,ugm-3,52,R,ugm-3
03-01-2008,06:00,59,R,ugm-3,57,R,ugm-3,147,R,ugm-3
03-01-2008,07:00,160,R,ugm-3,105,R,ugm-3,350,R,ugm-3
03-01-2008,08:00,293,R,ugm-3,157,R,ugm-3,604,R,ugm-3
03-01-2008,09:00,306,R,ugm-3,155,R,ugm-3,623,R,ugm-3
03-01-2008,10:00,351,R,ugm-3,191,R,ugm-3,728,R,ugm-3
03-01-2008,11:00,303,R,ugm-3,160,R,ugm-3,623,R,ugm-3
03-01-2008,12:00,241,R,ugm-3,134,R,ugm-3,502,R,ugm-3
03-01-2008,13:00,243,R,ugm-3,136,R,ugm-3,506,R,ugm-3
03-01-2008,14:00,209,R,ugm-3,120,R,ugm-3,439,R,ugm-3
03-01-2008,15:00,235,R,ugm-3,130,R,ugm-3,489,R,ugm-3
03-01-2008,16:00,308,R,ugm-3,160,R,ugm-3,630,R,ugm-3
03-01-2008,17:00,315,R,ugm-3,151,R,ugm-3,632,R,ugm-3
03-01-2008,18:00,286,R,ugm-3,147,R,ugm-3,584,R,ugm-3
03-01-2008,19:00,293,R,ugm-3,145,R,ugm-3,592,R,ugm-3
03-01-2008,20:00,175,R,ugm-3,113,R,ugm-3,380,R,ugm-3
03-01-2008,21:00,149,R,ugm-3,92,R,ugm-3,319,R,ugm-3
03-01-2008,22:00,184,R,ugm-3,99,R,ugm-3,380,R,ugm-3
03-01-2008,23:00,150,R,ugm-3,94,R,ugm-3,323,R,ugm-3
03-01-2008,24:00,134,R,ugm-3,82,R,ugm-3,287,R,ugm-3
04-01-2008,01:00,49,R,ugm-3,55,R,ugm-3,130,R,ugm-3
04-01-2008,02:00,39,R,ugm-3,55,R,ugm-3,115,R,ugm-3
04-01-2008,03:00,50,R,ugm-3,55,R,ugm-3,132,R,ugm-3
04-01-2008,04:00,28,R,ugm-3,57,R,ugm-3,99,R,ugm-3
04-01-2008,05:00,25,R,ugm-3,52,R,ugm-3,90,R,ugm-3
04-01-2008,06:00,36,R,ugm-3,52,R,ugm-3,107,R,ugm-3
04-01-2008,07:00,144,R,ugm-3,90,R,ugm-3,309,R,ugm-3
04-01-2008,08:00,240,R,ugm-3,120,R,ugm-3,487,R,ugm-3
04-01-2008,09:00,301,R,ugm-3,155,R,ugm-3,615,R,ugm-3
04-01-2008,10:00,185,R,ugm-3,113,R,ugm-3,395,R,ugm-3
04-01-2008,11:00,225,R,ugm-3,117,R,ugm-3,460,R,ugm-3
04-01-2008,12:00,218,R,ugm-3,113,R,ugm-3,445,R,ugm-3
04-01-2008,13:00,228,R,ugm-3,113,R,ugm-3,460,R,ugm-3
04-01-2008,14:00,204,R,ugm-3,113,R,ugm-3,424,R,ugm-3
04-01-2008,15:00,114,R,ugm-3,90,R,ugm-3,264,R,ugm-3
04-01-2008,16:00,124,R,ugm-3,88,R,ugm-3,277,R,ugm-3
04-01-2008,17:00,94,R,ugm-3,78,R,ugm-3,222,R,ugm-3
04-01-2008,18:00,71,R,ugm-3,76,R,ugm-3,185,R,ugm-3
04-01-2008,19:00,55,R,ugm-3,71,R,ugm-3,155,R,ugm-3
04-01-2008,20:00,43,R,ugm-3,63,R,ugm-3,128,R,ugm-3
04-01-2008,21:00,24,R,ugm-3,50,R,ugm-3,86,R,ugm-3
04-01-2008,22:00,20,R,ugm-3,46,R,ugm-3,76,R,ugm-3
04-01-2008,23:00,13,R,ugm-3,38,R,ugm-3,57,R,ugm-3
04-01-2008,24:00,11,R,ugm-3,32,R,ugm-3,50,R,ugm-3
05-01-2008,01:00,4,R,ugm-3,23,R,ugm-3,29,R,ugm-3
05-01-2008,02:00,5,R,ugm-3,27,R,ugm-3,34,R,ugm-3
05-01-2008,03:00,4,R,ugm-3,21,R,ugm-3,27,R,ugm-3
05-01-2008,04:00,4,R,ugm-3,17,R,ugm-3,23,R,ugm-3
05-01-2008,05:00,4,R,ugm-3,15,R,ugm-3,21,R,ugm-3
05-01-2008,06:00,4,R,ugm-3,15,R,ugm-3,21,R,ugm-3
05-01-2008,07:00,9,R,ugm-3,21,R,ugm-3,34,R,ugm-3
05-01-2008,08:00,10,R,ugm-3,23,R,ugm-3,38,R,ugm-3
05-01-2008,09:00,20,R,ugm-3,34,R,ugm-3,65,R,ugm-3
05-01-2008,10:00,25,R,ugm-3,46,R,ugm-3,84,R,ugm-3
05-01-2008,11:00,28,R,ugm-3,53,R,ugm-3,96,R,ugm-3
05-01-2008,12:00,23,R,ugm-3,65,R,ugm-3,99,R,ugm-3
05-01-2008,13:00,30,R,ugm-3,53,R,ugm-3,99,R,ugm-3
05-01-2008,14:00,24,R,ugm-3,48,R,ugm-3,84,R,ugm-3
05-01-2008,15:00,29,R,ugm-3,48,R,ugm-3,92,R,ugm-3
05-01-2008,16:00,81,R,ugm-3,78,R,ugm-3,202,R,ugm-3
05-01-2008,17:00,131,R,ugm-3,101,R,ugm-3,302,R,ugm-3
05-01-2008,18:00,61,R,ugm-3,71,R,ugm-3,164,R,ugm-3
05-01-2008,19:00,88,R,ugm-3,73,R,ugm-3,206,R,ugm-3
05-01-2008,20:00,60,R,ugm-3,59,R,ugm-3,151,R,ugm-3
05-01-2008,21:00,54,R,ugm-3,59,R,ugm-3,141,R,ugm-3
05-01-2008,22:00,36,R,ugm-3,52,R,ugm-3,107,R,ugm-3
05-01-2008,23:00,54,R,ugm-3,57,R,ugm-3,139,R,ugm-3
05-01-2008,24:00,46,R,ugm-3,57,R,ugm-3,128,R,ugm-3
06-01-2008,01:00,20,R,ugm-3,42,R,ugm-3,73,R,ugm-3
06-01-2008,02:00,19,R,ugm-3,44,R,ugm-3,73,R,ugm-3
06-01-2008,03:00,11,R,ugm-3,36,R,ugm-3,53,R,ugm-3
06-01-2008,04:00,5,R,ugm-3,29,R,ugm-3,36,R,ugm-3
06-01-2008,05:00,1,R,ugm-3,21,R,ugm-3,23,R,ugm-3
06-01-2008,06:00,3,R,ugm-3,21,R,ugm-3,25,R,ugm-3
06-01-2008,07:00,5,R,ugm-3,25,R,ugm-3,32,R,ugm-3
06-01-2008,08:00,9,R,ugm-3,31,R,ugm-3,44,R,ugm-3
06-01-2008,09:00,16,R,ugm-3,42,R,ugm-3,67,R,ugm-3
06-01-2008,10:00,51,R,ugm-3,59,R,ugm-3,138,R,ugm-3
06-01-2008,11:00,36,R,ugm-3,52,R,ugm-3,107,R,ugm-3
06-01-2008,12:00,65,R,ugm-3,65,R,ugm-3,164,R,ugm-3
06-01-2008,13:00,54,R,ugm-3,57,R,ugm-3,139,R,ugm-3
06-01-2008,14:00,46,R,ugm-3,48,R,ugm-3,118,R,ugm-3
06-01-2008,15:00,84,R,ugm-3,74,R,ugm-3,202,R,ugm-3
06-01-2008,16:00,83,R,ugm-3,96,R,ugm-3,222,R,ugm-3
06-01-2008,17:00,83,R,ugm-3,94,R,ugm-3,220,R,ugm-3
06-01-2008,18:00,70,R,ugm-3,84,R,ugm-3,191,R,ugm-3
06-01-2008,19:00,63,R,ugm-3,76,R,ugm-3,172,R,ugm-3
06-01-2008,20:00,23,R,ugm-3,50,R,ugm-3,84,R,ugm-3
06-01-2008,21:00,16,R,ugm-3,38,R,ugm-3,63,R,ugm-3
06-01-2008,22:00,13,R,ugm-3,34,R,ugm-3,53,R,ugm-3
06-01-2008,23:00,8,R,ugm-3,31,R,ugm-3,42,R,ugm-3
06-01-2008,24:00,3,R,ugm-3,27,R,ugm-3,31,R,ugm-3
07-01-2008,01:00,1,R,ugm-3,15,R,ugm-3,17,R,ugm-3
07-01-2008,02:00,1,R,ugm-3,17,R,ugm-3,19,R,ugm-3
07-01-2008,03:00,1,R,ugm-3,15,R,ugm-3,17,R,ugm-3
07-01-2008,04:00,1,R,ugm-3,13,R,ugm-3,15,R,ugm-3
07-01-2008,05:00,0,R,ugm-3,11,R,ugm-3,11,R,ugm-3
07-01-2008,06:00,3,R,ugm-3,15,R,ugm-3,19,R,ugm-3
07-01-2008,07:00,11,R,ugm-3,27,R,ugm-3,44,R,ugm-3
07-01-2008,08:00,29,R,ugm-3,44,R,ugm-3,88,R,ugm-3
07-01-2008,09:00,31,R,ugm-3,48,R,ugm-3,96,R,ugm-3
07-01-2008,10:00,41,R,ugm-3,55,R,ugm-3,118,R,ugm-3
07-01-2008,11:00,44,R,ugm-3,57,R,ugm-3,124,R,ugm-3
07-01-2008,12:00,25,R,ugm-3,44,R,ugm-3,82,R,ugm-3
07-01-2008,13:00,,,,,,,,,
07-01-2008,14:00,,,,,,,,,
07-01-2008,15:00,40,R,ugm-3,50,R,ugm-3,111,R,ugm-3
07-01-2008,16:00,40,R,ugm-3,53,R,ugm-3,115,R,ugm-3
07-01-2008,17:00,65,R,ugm-3,67,R,ugm-3,166,R,ugm-3
07-01-2008,18:00,80,R,ugm-3,74,R,ugm-3,197,R,ugm-3
07-01-2008,19:00,54,R,ugm-3,57,R,ugm-3,139,R,ugm-3
07-01-2008,20:00,16,R,ugm-3,36,R,ugm-3,61,R,ugm-3
07-01-2008,21:00,14,R,ugm-3,36,R,ugm-3,57,R,ugm-3
07-01-2008,22:00,13,R,ugm-3,34,R,ugm-3,53,R,ugm-3
07-01-2008,23:00,19,R,ugm-3,36,R,ugm-3,65,R,ugm-3
07-01-2008,24:00,10,R,ugm-3,29,R,ugm-3,44,R,ugm-3
08-01-2008,01:00,5,R,ugm-3,25,R,ugm-3,32,R,ugm-3
08-01-2008,02:00,5,R,ugm-3,32,R,ugm-3,40,R,ugm-3
08-01-2008,03:00,6,R,ugm-3,29,R,ugm-3,38,R,ugm-3
08-01-2008,04:00,3,R,ugm-3,19,R,ugm-3,23,R,ugm-3
08-01-2008,05:00,3,R,ugm-3,17,R,ugm-3,21,R,ugm-3
08-01-2008,06:00,11,R,ugm-3,29,R,ugm-3,46,R,ugm-3
08-01-2008,07:00,48,R,ugm-3,59,R,ugm-3,132,R,ugm-3
08-01-2008,08:00,60,R,ugm-3,69,R,ugm-3,160,R,ugm-3
08-01-2008,09:00,63,R,ugm-3,78,R,ugm-3,174,R,ugm-3
08-01-2008,10:00,49,R,ugm-3,65,R,ugm-3,139,R,ugm-3
08-01-2008,11:00,50,R,ugm-3,69,R,ugm-3,145,R,ugm-3
08-01-2008,12:00,34,R,ugm-3,57,R,ugm-3,109,R,ugm-3
08-01-2008,13:00,28,R,ugm-3,52,R,ugm-3,94,R,ugm-3
08-01-2008,14:00,26,R,ugm-3,50,R,ugm-3,90,R,ugm-3
08-01-2008,15:00,28,R,ugm-3,55,R,ugm-3,97,R,ugm-3
08-01-2008,16:00,24,R,ugm-3,50,R,ugm-3,86,R,ugm-3
08-01-2008,17:00,31,R,ugm-3,52,R,ugm-3,99,R,ugm-3
08-01-2008,18:00,34,R,ugm-3,57,R,ugm-3,109,R,ugm-3
08-01-2008,19:00,21,R,ugm-3,48,R,ugm-3,80,R,ugm-3
08-01-2008,20:00,16,R,ugm-3,36,R,ugm-3,61,R,ugm-3
08-01-2008,21:00,9,R,ugm-3,34,R,ugm-3,48,R,ugm-3
08-01-2008,22:00,13,R,ugm-3,31,R,ugm-3,50,R,ugm-3
08-01-2008,23:00,48,R,ugm-3,50,R,ugm-3,122,R,ugm-3
08-01-2008,24:00,31,R,ugm-3,46,R,ugm-3,94,R,ugm-3
09-01-2008,01:00,9,R,ugm-3,25,R,ugm-3,38,R,ugm-3
09-01-2008,02:00,1,R,ugm-3,23,R,ugm-3,25,R,ugm-3
09-01-2008,03:00,1,R,ugm-3,15,R,ugm-3,17,R,ugm-3
09-01-2008,04:00,1,R,ugm-3,13,R,ugm-3,15,R,ugm-3
09-01-2008,05:00,1,R,ugm-3,13,R,ugm-3,15,R,ugm-3
09-01-2008,06:00,5,R,ugm-3,19,R,ugm-3,27,R,ugm-3
09-01-2008,07:00,23,R,ugm-3,38,R,ugm-3,73,R,ugm-3
09-01-2008,08:00,29,R,ugm-3,48,R,ugm-3,92,R,ugm-3
09-01-2008,09:00,34,R,ugm-3,55,R,ugm-3,107,R,ugm-3
09-01-2008,10:00,30,R,ugm-3,52,R,ugm-3,97,R,ugm-3
09-01-2008,11:00,23,R,ugm-3,46,R,ugm-3,80,R,ugm-3
09-01-2008,12:00,29,R,ugm-3,48,R,ugm-3,92,R,ugm-3
09-01-2008,13:00,23,R,ugm-3,40,R,ugm-3,74,R,ugm-3
09-01-2008,14:00,23,R,ugm-3,34,R,ugm-3,69,R,ugm-3
09-01-2008,15:00,23,R,ugm-3,36,R,ugm-3,71,R,ugm-3
09-01-2008,16:00,19,R,ugm-3,42,R,ugm-3,71,R,ugm-3
09-01-2008,17:00,43,R,ugm-3,55,R,ugm-3,120,R,ugm-3
09-01-2008,18:00,61,R,ugm-3,73,R,ugm-3,166,R,ugm-3
09-01-2008,19:00,56,R,ugm-3,74,R,ugm-3,160,R,ugm-3
09-01-2008,20:00,34,R,ugm-3,69,R,ugm-3,120,R,ugm-3
09-01-2008,21:00,19,R,ugm-3,50,R,ugm-3,78,R,ugm-3
09-01-2008,22:00,8,R,ugm-3,36,R,ugm-3,48,R,ugm-3
09-01-2008,23:00,8,R,ugm-3,32,R,ugm-3,44,R,ugm-3
09-01-2008,24:00,6,R,ugm-3,27,R,ugm-3,36,R,ugm-3
10-01-2008,01:00,3,R,ugm-3,21,R,ugm-3,25,R,ugm-3
10-01-2008,02:00,3,R,ugm-3,21,R,ugm-3,25,R,ugm-3
10-01-2008,03:00,3,R,ugm-3,17,R,ugm-3,21,R,ugm-3
10-01-2008,04:00,1,R,ugm-3,15,R,ugm-3,17,R,ugm-3
10-01-2008,05:00,1,R,ugm-3,13,R,ugm-3,15,R,ugm-3
10-01-2008,06:00,3,R,ugm-3,21,R,ugm-3,25,R,ugm-3
10-01-2008,07:00,18,R,ugm-3,40,R,ugm-3,67,R,ugm-3
10-01-2008,08:00,23,R,ugm-3,48,R,ugm-3,82,R,ugm-3
10-01-2008,09:00,23,R,ugm-3,48,R,ugm-3,82,R,ugm-3
10-01-2008,10:00,20,R,ugm-3,46,R,ugm-3,76,R,ugm-3
10-01-2008,11:00,23,R,ugm-3,44,R,ugm-3,78,R,ugm-3
10-01-2008,12:00,19,R,ugm-3,42,R,ugm-3,71,R,ugm-3
10-01-2008,13:00,21,R,ugm-3,42,R,ugm-3,74,R,ugm-3
10-01-2008,14:00,18,R,ugm-3,36,R,ugm-3,63,R,ugm-3
10-01-2008,15:00,24,R,ugm-3,38,R,ugm-3,74,R,ugm-3
10-01-2008,16:00,20,R,ugm-3,40,R,ugm-3,71,R,ugm-3
10-01-2008,17:00,28,R,ugm-3,48,R,ugm-3,90,R,ugm-3
10-01-2008,18:00,40,R,ugm-3,55,R,ugm-3,117,R,ugm-3
10-01-2008,19:00,66,R,ugm-3,67,R,ugm-3,168,R,ugm-3
10-01-2008,20:00,101,R,ugm-3,80,R,ugm-3,235,R,ugm-3
10-01-2008,21:00,59,R,ugm-3,71,R,ugm-3,160,R,ugm-3
10-01-2008,22:00,50,R,ugm-3,61,R,ugm-3,138,R,ugm-3
10-01-2008,23:00,69,R,ugm-3,69,R,ugm-3,174,R,ugm-3
10-01-2008,24:00,80,R,ugm-3,74,R,ugm-3,197,R,ugm-3
11-01-2008,01:00,63,R,ugm-3,61,R,ugm-3,157,R,ugm-3
11-01-2008,02:00,71,R,ugm-3,67,R,ugm-3,176,R,ugm-3
11-01-2008,03:00,38,R,ugm-3,52,R,ugm-3,109,R,ugm-3
11-01-2008,04:00,25,R,ugm-3,46,R,ugm-3,84,R,ugm-3
11-01-2008,05:00,20,R,ugm-3,42,R,ugm-3,73,R,ugm-3
11-01-2008,06:00,61,R,ugm-3,59,R,ugm-3,153,R,ugm-3
11-01-2008,07:00,145,R,ugm-3,78,R,ugm-3,300,R,ugm-3
11-01-2008,08:00,221,R,ugm-3,117,R,ugm-3,455,R,ugm-3
11-01-2008,09:00,245,R,ugm-3,124,R,ugm-3,499,R,ugm-3
11-01-2008,10:00,251,R,ugm-3,128,R,ugm-3,512,R,ugm-3
11-01-2008,11:00,190,R,ugm-3,107,R,ugm-3,397,R,ugm-3
11-01-2008,12:00,205,R,ugm-3,111,R,ugm-3,424,R,ugm-3
11-01-2008,13:00,224,R,ugm-3,132,R,ugm-3,474,R,ugm-3
11-01-2008,14:00,55,R,ugm-3,73,R,ugm-3,157,R,ugm-3
11-01-2008,15:00,153,R,ugm-3,105,R,ugm-3,338,R,ugm-3
11-01-2008,16:00,83,R,ugm-3,80,R,ugm-3,206,R,ugm-3
11-01-2008,17:00,101,R,ugm-3,88,R,ugm-3,243,R,ugm-3
11-01-2008,18:00,95,R,ugm-3,80,R,ugm-3,225,R,ugm-3
11-01-2008,19:00,218,R,ugm-3,118,R,ugm-3,451,R,ugm-3
11-01-2008,20:00,63,R,ugm-3,67,R,ugm-3,162,R,ugm-3
11-01-2008,21:00,19,R,ugm-3,48,R,ugm-3,76,R,ugm-3
11-01-2008,22:00,13,R,ugm-3,44,R,ugm-3,63,R,ugm-3
11-01-2008,23:00,6,R,ugm-3,34,R,ugm-3,44,R,ugm-3
11-01-2008,24:00,9,R,ugm-3,36,R,ugm-3,50,R,ugm-3
12-01-2008,01:00,35,R,ugm-3,44,R,ugm-3,97,R,ugm-3
12-01-2008,02:00,18,R,ugm-3,38,R,ugm-3,65,R,ugm-3
12-01-2008,03:00,10,R,ugm-3,32,R,ugm-3,48,R,ugm-3
12-01-2008,04:00,10,R,ugm-3,32,R,ugm-3,48,R,ugm-3
12-01-2008,05:00,8,R,ugm-3,29,R,ugm-3,40,R,ugm-3
12-01-2008,06:00,5,R,ugm-3,31,R,ugm-3,38,R,ugm-3
12-01-2008,07:00,29,R,ugm-3,46,R,ugm-3,90,R,ugm-3
12-01-2008,08:00,35,R,ugm-3,53,R,ugm-3,107,R,ugm-3
12-01-2008,09:00,86,R,ugm-3,69,R,ugm-3,201,R,ugm-3
12-01-2008,10:00,66,R,ugm-3,59,R,ugm-3,160,R,ugm-3
12-01-2008,11:00,70,R,ugm-3,57,R,ugm-3,164,R,ugm-3
12-01-2008,12:00,68,R,ugm-3,52,R,ugm-3,155,R,ugm-3
12-01-2008,13:00,75,R,ugm-3,57,R,ugm-3,172,R,ugm-3
12-01-2008,14:00,63,R,ugm-3,53,R,ugm-3,149,R,ugm-3
12-01-2008,15:00,49,R,ugm-3,52,R,ugm-3,126,R,ugm-3
12-01-2008,16:00,139,R,ugm-3,94,R,ugm-3,306,R,ugm-3
12-01-2008,17:00,231,R,ugm-3,126,R,ugm-3,479,R,ugm-3
12-01-2008,18:00,178,R,ugm-3,105,R,ugm-3,376,R,ugm-3
12-01-2008,19:00,133,R,ugm-3,96,R,ugm-3,298,R,ugm-3
12-01-2008,20:00,76,R,ugm-3,74,R,ugm-3,191,R,ugm-3
12-01-2008,21:00,48,R,ugm-3,59,R,ugm-3,132,R,ugm-3
12-01-2008,22:00,29,R,ugm-3,46,R,ugm-3,90,R,ugm-3
12-01-2008,23:00,24,R,ugm-3,42,R,ugm-3,78,R,ugm-3
12-01-2008,24:00,23,R,ugm-3,42,R,ugm-3,76,R,ugm-3
13-01-2008,01:00,21,R,ugm-3,36,R,ugm-3,69,R,ugm-3
13-01-2008,02:00,11,R,ugm-3,32,R,ugm-3,50,R,ugm-3
13-01-2008,03:00,11,R,ugm-3,27,R,ugm-3,44,R,ugm-3
13-01-2008,04:00,9,R,ugm-3,27,R,ugm-3,40,R,ugm-3
13-01-2008,05:00,4,R,ugm-3,19,R,ugm-3,25,R,ugm-3
13-01-2008,06:00,3,R,ugm-3,15,R,ugm-3,19,R,ugm-3
13-01-2008,07:00,3,R,ugm-3,15,R,ugm-3,19,R,ugm-3
13-01-2008,08:00,4,R,ugm-3,21,R,ugm-3,27,R,ugm-3
13-01-2008,09:00,4,R,ugm-3,21,R,ugm-3,27,R,ugm-3
13-01-2008,10:00,5,R,ugm-3,27,R,ugm-3,34,R,ugm-3
13-01-2008,11:00,9,R,ugm-3,32,R,ugm-3,46,R,ugm-3
13-01-2008,12:00,9,R,ugm-3,27,R,ugm-3,40,R,ugm-3
13-01-2008,13:00,15,R,ugm-3,36,R,ugm-3,59,R,ugm-3
13-01-2008,14:00,11,R,ugm-3,50,R,ugm-3,67,R,ugm-3
13-01-2008,15:00,10,R,ugm-3,50,R,ugm-3,65,R,ugm-3
13-01-2008,16:00,9,R,ugm-3,40,R,ugm-3,53,R,ugm-3
13-01-2008,17:00,14,R,ugm-3,38,R,ugm-3,59,R,ugm-3
13-01-2008,18:00,15,R,ugm-3,36,R,ugm-3,59,R,ugm-3
13-01-2008,19:00,13,R,ugm-3,32,R,ugm-3,52,R,ugm-3
13-01-2008,20:00,19,R,ugm-3,31,R,ugm-3,59,R,ugm-3
13-01-2008,21:00,16,R,ugm-3,27,R,ugm-3,52,R,ugm-3
13-01-2008,22:00,20,R,ugm-3,29,R,ugm-3,59,R,ugm-3
13-01-2008,23:00,15,R,ugm-3,27,R,ugm-3,50,R,ugm-3
13-01-2008,24:00,9,R,ugm-3,27,R,ugm-3,40,R,ugm-3
14-01-2008,01:00,8,R,ugm-3,27,R,ugm-3,38,R,ugm-3
14-01-2008,02:00,6,R,ugm-3,25,R,ugm-3,34,R,ugm-3
14-01-2008,03:00,4,R,ugm-3,21,R,ugm-3,27,R,ugm-3
14-01-2008,04:00,1,R,ugm-3,15,R,ugm-3,17,R,ugm-3
14-01-2008,05:00,3,R,ugm-3,17,R,ugm-3,21,R,ugm-3
14-01-2008,06:00,6,R,ugm-3,25,R,ugm-3,34,R,ugm-3
14-01-2008,07:00,29,R,ugm-3,44,R,ugm-3,88,R,ugm-3
14-01-2008,08:00,21,R,ugm-3,38,R,ugm-3,71,R,ugm-3
14-01-2008,09:00,36,R,ugm-3,52,R,ugm-3,107,R,ugm-3
14-01-2008,10:00,46,R,ugm-3,44,R,ugm-3,115,R,ugm-3
14-01-2008,11:00,48,R,ugm-3,46,R,ugm-3,118,R,ugm-3
14-01-2008,12:00,36,R,ugm-3,50,R,ugm-3,105,R,ugm-3
14-01-2008,13:00,31,R,ugm-3,50,R,ugm-3,97,R,ugm-3
14-01-2008,14:00,31,R,ugm-3,44,R,ugm-3,92,R,ugm-3
14-01-2008,15:00,19,R,ugm-3,32,R,ugm-3,61,R,ugm-3
14-01-2008,16:00,16,R,ugm-3,29,R,ugm-3,53,R,ugm-3
14-01-2008,17:00,16,R,ugm-3,34,R,ugm-3,59,R,ugm-3
14-01-2008,18:00,30,R,ugm-3,46,R,ugm-3,92,R,ugm-3
14-01-2008,19:00,14,R,ugm-3,34,R,ugm-3,55,R,ugm-3
14-01-2008,20:00,11,R,ugm-3,29,R,ugm-3,46,R,ugm-3
14-01-2008,21:00,8,R,ugm-3,31,R,ugm-3,42,R,ugm-3
14-01-2008,22:00,9,R,ugm-3,32,R,ugm-3,46,R,ugm-3
14-01-2008,23:00,9,R,ugm-3,34,R,ugm-3,48,R,ugm-3
14-01-2008,24:00,8,R,ugm-3,27,R,ugm-3,38,R,ugm-3
15-01-2008,01:00,1,R,ugm-3,15,R,ugm-3,17,R,ugm-3
15-01-2008,02:00,1,R,ugm-3,17,R,ugm-3,19,R,ugm-3
15-01-2008,03:00,1,R,ugm-3,13,R,ugm-3,15,R,ugm-3
15-01-2008,04:00,3,R,ugm-3,15,R,ugm-3,19,R,ugm-3
15-01-2008,05:00,1,R,ugm-3,19,R,ugm-3,21,R,ugm-3
15-01-2008,06:00,3,R,ugm-3,15,R,ugm-3,19,R,ugm-3
15-01-2008,07:00,10,R,ugm-3,27,R,ugm-3,42,R,ugm-3
15-01-2008,08:00,26,R,ugm-3,40,R,ugm-3,80,R,ugm-3
15-01-2008,09:00,30,R,ugm-3,53,R,ugm-3,99,R,ugm-3
15-01-2008,10:00,41,R,ugm-3,53,R,ugm-3,117,R,ugm-3
15-01-2008,11:00,24,R,ugm-3,38,R,ugm-3,74,R,ugm-3
15-01-2008,12:00,33,R,ugm-3,36,R,ugm-3,86,R,ugm-3
15-01-2008,13:00,24,R,ugm-3,31,R,ugm-3,67,R,ugm-3
15-01-2008,14:00,29,R,ugm-3,34,R,ugm-3,78,R,ugm-3
15-01-2008,15:00,14,R,ugm-3,32,R,ugm-3,53,R,ugm-3
15-01-2008,16:00,29,R,ugm-3,46,R,ugm-3,90,R,ugm-3
15-01-2008,17:00,56,R,ugm-3,63,R,ugm-3,149,R,ugm-3
15-01-2008,18:00,138,R,ugm-3,92,R,ugm-3,302,R,ugm-3
15-01-2008,19:00,178,R,ugm-3,103,R,ugm-3,374,R,ugm-3
15-01-2008,20:00,28,R,ugm-3,52,R,ugm-3,94,R,ugm-3
15-01-2008,21:00,15,R,ugm-3,44,R,ugm-3,67,R,ugm-3
15-01-2008,22:00,18,R,ugm-3,38,R,ugm-3,65,R,ugm-3
15-01-2008,23:00,6,R,ugm-3,29,R,ugm-3,38,R,ugm-3
15-01-2008,24:00,5,R,ugm-3,21,R,ugm-3,29,R,ugm-3
16-01-2008,01:00,3,R,ugm-3,17,R,ugm-3,21,R,ugm-3
16-01-2008,02:00,1,R,ugm-3,21,R,ugm-3,23,R,ugm-3
16-01-2008,03:00,1,R,ugm-3,15,R,ugm-3,17,R,ugm-3
16-01-2008,04:00,1,R,ugm-3,15,R,ugm-3,17,R,ugm-3
16-01-2008,05:00,1,R,ugm-3,15,R,ugm-3,17,R,ugm-3
16-01-2008,06:00,3,R,ugm-3,17,R,ugm-3,21,R,ugm-3
16-01-2008,07:00,19,R,ugm-3,29,R,ugm-3,57,R,ugm-3
16-01-2008,08:00,36,R,ugm-3,34,R,ugm-3,90,R,ugm-3
16-01-2008,09:00,75,R,ugm-3,50,R,ugm-3,164,R,ugm-3
16-01-2008,10:00,109,R,ugm-3,52,R,ugm-3,218,R,ugm-3
16-01-2008,11:00,61,R,ugm-3,38,R,ugm-3,132,R,ugm-3
16-01-2008,12:00,51,R,ugm-3,34,R,ugm-3,113,R,ugm-3
16-01-2008,13:00,71,R,ugm-3,48,R,ugm-3,157,R,ugm-3
16-01-2008,14:00,68,R,ugm-3,52,R,ugm-3,155,R,ugm-3
16-01-2008,15:00,105,R,ugm-3,67,R,ugm-3,227,R,ugm-3
16-01-2008,16:00,130,R,ugm-3,80,R,ugm-3,279,R,ugm-3
16-01-2008,17:00,139,R,ugm-3,88,R,ugm-3,300,R,ugm-3
16-01-2008,18:00,249,R,ugm-3,107,R,ugm-3,487,R,ugm-3
16-01-2008,19:00,300,R,ugm-3,120,R,ugm-3,579,R,ugm-3
16-01-2008,20:00,314,R,ugm-3,120,R,ugm-3,600,R,ugm-3
16-01-2008,21:00,273,R,ugm-3,111,R,ugm-3,527,R,ugm-3
16-01-2008,22:00,303,R,ugm-3,107,R,ugm-3,569,R,ugm-3
16-01-2008,23:00,293,R,ugm-3,101,R,ugm-3,548,R,ugm-3
16-01-2008,24:00,219,R,ugm-3,88,R,ugm-3,422,R,ugm-3
17-01-2008,01:00,149,R,ugm-3,78,R,ugm-3,306,R,ugm-3
17-01-2008,02:00,53,R,ugm-3,63,R,ugm-3,143,R,ugm-3
17-01-2008,03:00,65,R,ugm-3,61,R,ugm-3,160,R,ugm-3
17-01-2008,04:00,39,R,ugm-3,52,R,ugm-3,111,R,ugm-3
17-01-2008,05:00,9,R,ugm-3,50,R,ugm-3,63,R,ugm-3
17-01-2008,06:00,23,R,ugm-3,52,R,ugm-3,86,R,ugm-3
17-01-2008,07:00,31,R,ugm-3,53,R,ugm-3,101,R,ugm-3
17-01-2008,08:00,53,R,ugm-3,59,R,ugm-3,139,R,ugm-3
17-01-2008,09:00,55,R,ugm-3,57,R,ugm-3,141,R,ugm-3
17-01-2008,10:00,101,R,ugm-3,63,R,ugm-3,218,R,ugm-3
17-01-2008,11:00,25,R,ugm-3,48,R,ugm-3,86,R,ugm-3
17-01-2008,12:00,44,R,ugm-3,48,R,ugm-3,115,R,ugm-3
17-01-2008,13:00,15,R,ugm-3,44,R,ugm-3,67,R,ugm-3
17-01-2008,14:00,6,R,ugm-3,50,R,ugm-3,59,R,ugm-3
17-01-2008,15:00,13,R,ugm-3,57,R,ugm-3,76,R,ugm-3
17-01-2008,16:00,19,R,ugm-3,67,R,ugm-3,96,R,ugm-3
17-01-2008,17:00,13,R,ugm-3,59,R,ugm-3,78,R,ugm-3
17-01-2008,18:00,14,R,ugm-3,53,R,ugm-3,74,R,ugm-3
17-01-2008,19:00,0,R,ugm-3,38,R,ugm-3,38,R,ugm-3
17-01-2008,20:00,6,R,ugm-3,40,R,ugm-3,50,R,ugm-3
17-01-2008,21:00,13,R,ugm-3,42,R,ugm-3,61,R,ugm-3
17-01-2008,22:00,11,R,ugm-3,44,R,ugm-3,61,R,ugm-3
17-01-2008,23:00,15,R,ugm-3,44,R,ugm-3,67,R,ugm-3
17-01-2008,24:00,15,R,ugm-3,44,R,ugm-3,67,R,ugm-3
18-01-2008,01:00,8,R,ugm-3,31,R,ugm-3,42,R,ugm-3
18-01-2008,02:00,6,R,ugm-3,34,R,ugm-3,44,R,ugm-3
18-01-2008,03:00,9,R,ugm-3,29,R,ugm-3,42,R,ugm-3
18-01-2008,04:00,1,R,ugm-3,23,R,ugm-3,25,R,ugm-3
18-01-2008,05:00,0,R,ugm-3,21,R,ugm-3,21,R,ugm-3
18-01-2008,06:00,1,R,ugm-3,19,R,ugm-3,21,R,ugm-3
18-01-2008,07:00,14,R,ugm-3,40,R,ugm-3,61,R,ugm-3
18-01-2008,08:00,26,R,ugm-3,38,R,ugm-3,78,R,ugm-3
18-01-2008,09:00,43,R,ugm-3,44,R,ugm-3,109,R,ugm-3
18-01-2008,10:00,50,R,ugm-3,52,R,ugm-3,128,R,ugm-3
18-01-2008,11:00,13,R,ugm-3,27,R,ugm-3,46,R,ugm-3
18-01-2008,12:00,15,R,ugm-3,25,R,ugm-3,48,R,ugm-3
18-01-2008,13:00,14,R,ugm-3,25,R,ugm-3,46,R,ugm-3
18-01-2008,14:00,11,R,ugm-3,23,R,ugm-3,40,R,ugm-3
18-01-2008,15:00,9,R,ugm-3,19,R,ugm-3,32,R,ugm-3
18-01-2008,16:00,6,R,ugm-3,17,R,ugm-3,27,R,ugm-3
18-01-2008,17:00,8,R,ugm-3,19,R,ugm-3,31,R,ugm-3
18-01-2008,18:00,3,R,ugm-3,17,R,ugm-3,21,R,ugm-3
18-01-2008,19:00,5,R,ugm-3,15,R,ugm-3,23,R,ugm-3
18-01-2008,20:00,4,R,ugm-3,13,R,ugm-3,19,R,ugm-3
18-01-2008,21:00,1,R,ugm-3,13,R,ugm-3,15,R,ugm-3
18-01-2008,22:00,4,R,ugm-3,11,R,ugm-3,17,R,ugm-3
18-01-2008,23:00,3,R,ugm-3,11,R,ugm-3,15,R,ugm-3
18-01-2008,24:00,3,R,ugm-3,11,R,ugm-3,15,R,ugm-3
19-01-2008,01:00,4,R,ugm-3,13,R,ugm-3,19,R,ugm-3
19-01-2008,02:00,1,R,ugm-3,17,R,ugm-3,19,R,ugm-3
19-01-2008,03:00,4,R,ugm-3,15,R,ugm-3,21,R,ugm-3
19-01-2008,04:00,3,R,ugm-3,13,R,ugm-3,17,R,ugm-3
19-01-2008,05:00,1,R,ugm-3,11,R,ugm-3,13,R,ugm-3
19-01-2008,06:00,1,R,ugm-3,11,R,ugm-3,13,R,ugm-3
19-01-2008,07:00,5,R,ugm-3,19,R,ugm-3,27,R,ugm-3
19-01-2008,08:00,5,R,ugm-3,23,R,ugm-3,31,R,ugm-3
19-01-2008,09:00,10,R,ugm-3,32,R,ugm-3,48,R,ugm-3
19-01-2008,10:00,16,R,ugm-3,38,R,ugm-3,63,R,ugm-3
19-01-2008,11:00,19,R,ugm-3,34,R,ugm-3,63,R,ugm-3
19-01-2008,12:00,23,R,ugm-3,36,R,ugm-3,71,R,ugm-3
19-01-2008,13:00,28,R,ugm-3,38,R,ugm-3,80,R,ugm-3
19-01-2008,14:00,28,R,ugm-3,38,R,ugm-3,80,R,ugm-3
19-01-2008,15:00,29,R,ugm-3,40,R,ugm-3,84,R,ugm-3
19-01-2008,16:00,25,R,ugm-3,38,R,ugm-3,76,R,ugm-3
19-01-2008,17:00,13,R,ugm-3,36,R,ugm-3,55,R,ugm-3
19-01-2008,18:00,10,R,ugm-3,34,R,ugm-3,50,R,ugm-3
19-01-2008,19:00,5,R,ugm-3,25,R,ugm-3,32,R,ugm-3
19-01-2008,20:00,4,R,ugm-3,25,R,ugm-3,31,R,ugm-3
19-01-2008,21:00,3,R,ugm-3,25,R,ugm-3,29,R,ugm-3
19-01-2008,22:00,5,R,ugm-3,21,R,ugm-3,29,R,ugm-3
19-01-2008,23:00,3,R,ugm-3,19,R,ugm-3,23,R,ugm-3
19-01-2008,24:00,3,R,ugm-3,15,R,ugm-3,19,R,ugm-3
20-01-2008,01:00,8,R,ugm-3,17,R,ugm-3,29,R,ugm-3
20-01-2008,02:00,4,R,ugm-3,19,R,ugm-3,25,R,ugm-3
20-01-2008,03:00,4,R,ugm-3,15,R,ugm-3,21,R,ugm-3
20-01-2008,04:00,4,R,ugm-3,15,R,ugm-3,21,R,ugm-3
20-01-2008,05:00,4,R,ugm-3,8,R,ugm-3,13,R,ugm-3
20-01-2008,06:00,1,R,ugm-3,4,R,ugm-3,6,R,ugm-3
20-01-2008,07:00,6,R,ugm-3,10,R,ugm-3,19,R,ugm-3
20-01-2008,08:00,3,R,ugm-3,10,R,ugm-3,13,R,ugm-3
20-01-2008,09:00,4,R,ugm-3,10,R,ugm-3,15,R,ugm-3
20-01-2008,10:00,3,R,ugm-3,10,R,ugm-3,13,R,ugm-3
20-01-2008,11:00,10,R,ugm-3,13,R,ugm-3,29,R,ugm-3
20-01-2008,12:00,9,R,ugm-3,19,R,ugm-3,32,R,ugm-3
20-01-2008,13:00,9,R,ugm-3,21,R,ugm-3,34,R,ugm-3
20-01-2008,14:00,13,R,ugm-3,23,R,ugm-3,42,R,ugm-3
20-01-2008,15:00,19,R,ugm-3,27,R,ugm-3,55,R,ugm-3
20-01-2008,16:00,25,R,ugm-3,31,R,ugm-3,69,R,ugm-3